{"data":{"norad_id":59671,"intl_designator":"2024-084T","name":"STARLINK-31854","alt_names":[],"object_type":"PAYLOAD","status":"ACTIVE","operator":null,"country":"US","launch_date":"2024-05-06","launch_site_code":"AFETR","launch_vehicle":null,"mission":null,"orbit_class":"UNKNOWN","rcs_meters":null,"size_class":null,"mass_kg":null,"dimensions":null,"purposes":["comms"],"wikipedia_slug":null,"has_3d_model":false,"image_url":null,"decayed_at":null,"tle_current":{"epoch":"2026-09-21T06:49:35.222016Z","epoch_age_seconds":103494,"freshness":"FRESH","line1":"1 59671U 24084T   26264.28443544  .00000929  00000+0  43298-4 0  9999","line2":"2 59671  43.0037 344.1523 0001406 272.5834  87.4856 15.27577122134646","mean_motion":15.27577122,"eccentricity":0.0001406,"inclination_deg":43.0037,"raan_deg":344.1523,"arg_perigee_deg":272.5834,"mean_anomaly_deg":87.4856,"bstar":4.3298e-5,"rev_number":13464,"period_min":94.266926314965,"perigee_km":482.09302984377,"apogee_km":484.0223977973,"semimajor_km":6861.1947138205,"source":"CELESTRAK","updated_at":"2026-09-22T09:00:49.029285Z"}}}